Location: Boćki
(52.6512°N, 23.0459°E)
Time: 15:50:02
(UTC+02:00)

ISS - Pass Details

Date: 25 March 2019
Orbit: 408 x 410 km, 51.6° (Epoch: 25 April)

Event Time Altitude Azimuth Distance (km) Brightness Sun altitude
Rises 20:14:29 0° 258° (WSW) 2,334 0.7 -21.4°
Reaches altitude 10° 20:16:34 10° 256° (WSW) 1,474 -0.5 -21.6°
Enters shadow 20:18:44 37° 245° (WSW) 649 -2.6 -21.9°
